This is the latest recevied weather packets stored in our database for station/object W0AVQ. If no packets are shown the sender has not sent any weather packets the latest 10 day(s).
| Time | Temp. | Humidity | Pressure | Rain* | Wind** | Luminosity | Snow |
|---|---|---|---|---|---|---|---|
| 1778008132 | 17.22° C | 99% | 1009 hPa | 0 mm | - | 37 W/m² | - |
| 1778007827 | 16.67° C | 99% | 1009.1 hPa | 0 mm | - | 32 W/m² | - |
| 1778007523 | 16.67° C | 99% | 1009.3 hPa | 0 mm | - | 48 W/m² | - |
| 1778007220 | 16.67° C | 99% | 1008.8 hPa | 1.27 mm | - | 48 W/m² | - |
| 1778006916 | 16.67° C | 99% | 1008.9 hPa | 1.27 mm | - | 42 W/m² | - |
| 1778006613 | 16.67° C | 99% | 1009.2 hPa | 0 mm | - | 29 W/m² | - |
| 1778006310 | 16.67° C | 99% | 1009.4 hPa | 1.78 mm | - | 47 W/m² | - |
| 1778006007 | 16.67° C | 99% | 1009.2 hPa | 1.78 mm | - | 23 W/m² | - |
| 1778005704 | 16.67° C | 99% | 1009.2 hPa | 0 mm | - | 46 W/m² | - |
| 1778005400 | 16.67° C | 99% | 1009 hPa | 1.27 mm | - | 50 W/m² | - |
| 1778005097 | 16.67° C | 99% | 1008.6 hPa | 1.27 mm | - | 52 W/m² | - |
| 1778004795 | 16.67° C | 99% | 1009.1 hPa | 0 mm | - | 29 W/m² | - |
| 1778004491 | 16.67° C | 99% | 1009.1 hPa | 0 mm | - | 49 W/m² | - |
| 1778004187 | 16.67° C | 99% | 1009.2 hPa | 0 mm | - | 41 W/m² | - |
| 1778003884 | 16.67° C | 99% | 1009.1 hPa | 0 mm | - | 32 W/m² | - |
| 1778003580 | 16.67° C | 99% | 1009.3 hPa | 0 mm | - | 26 W/m² | - |
| 1778003277 | 16.67° C | 99% | 1009.3 hPa | 0 mm | - | 30 W/m² | - |
| 1778002974 | 16.67° C | 99% | 1009.4 hPa | 0 mm | - | 41 W/m² | - |
| 1778002670 | 16.67° C | 99% | 1009.3 hPa | 0 mm | - | 29 W/m² | - |
| 1778002367 | 16.67° C | 99% | 1009.3 hPa | 0 mm | - | 30 W/m² | - |
| 1778002064 | 16.67° C | 99% | 1009.1 hPa | 0 mm | - | 48 W/m² | - |
| 1778001761 | 16.67° C | 99% | 1009.6 hPa | 0 mm | - | 71 W/m² | - |
| 1778001461 | 16.67° C | 99% | 1009.5 hPa | 0 mm | - | 63 W/m² | - |
| 1778001158 | 16.67° C | 99% | 1009.4 hPa | 0 mm | - | 87 W/m² | - |
| 1778000854 | 16.67° C | 99% | 1010 hPa | 0 mm | - | 75 W/m² | - |
* Rain latest hour (hover to see other rain measurements)
** Current wind speed in m/s (hover to see current wind gust speed)